TimePDT,TemperatureF,Dew PointF,Humidity,Sea Level PressureIn,VisibilityMPH,Wind Direction,Wind SpeedMPH,Gust SpeedMPH,PrecipitationIn,Events,Conditions,WindDirDegrees,DateUTC
12:51 AM,69.1,12.0,11,30.05,10.0,East,3.5,-,N/A,,Clear,100,2013-10-06 07:51:00
1:51 AM,64.9,17.1,16,30.06,10.0,SW,3.5,-,N/A,,Clear,220,2013-10-06 08:51:00
2:51 AM,63.0,18.0,18,30.06,10.0,Calm,Calm,-,N/A,,Clear,0,2013-10-06 09:51:00
3:51 AM,62.1,21.0,21,30.05,10.0,Calm,Calm,-,N/A,,Clear,0,2013-10-06 10:51:00
4:51 AM,60.1,23.0,24,30.05,10.0,Calm,Calm,-,N/A,,Clear,0,2013-10-06 11:51:00
5:51 AM,57.9,25.0,28,30.06,10.0,Calm,Calm,-,N/A,,Clear,0,2013-10-06 12:51:00
6:51 AM,57.9,25.0,28,30.08,10.0,Calm,Calm,-,N/A,,Clear,0,2013-10-06 13:51:00
7:51 AM,62.1,23.0,22,30.09,10.0,West,3.5,-,N/A,,Clear,280,2013-10-06 14:51:00
8:51 AM,69.1,25.0,19,30.09,10.0,Calm,Calm,-,N/A,,Clear,0,2013-10-06 15:51:00
9:51 AM,77.0,27.0,16,30.08,10.0,West,3.5,-,N/A,,Clear,260,2013-10-06 16:51:00
10:51 AM,84.0,12.0,7,30.07,10.0,WNW,4.6,-,N/A,,Clear,300,2013-10-06 17:51:00
11:51 AM,87.1,12.0,6,30.04,10.0,SSE,5.8,-,N/A,,Clear,160,2013-10-06 18:51:00
12:51 PM,88.0,7.0,5,30.02,10.0,Variable,4.6,-,N/A,,Clear,0,2013-10-06 19:51:00
1:51 PM,91.0,6.1,4,29.99,10.0,Variable,3.5,-,N/A,,Clear,0,2013-10-06 20:51:00
2:51 PM,91.0,3.9,4,29.98,10.0,Variable,3.5,-,N/A,,Clear,0,2013-10-06 21:51:00
3:51 PM,91.9,5.0,4,29.96,10.0,South,4.6,-,N/A,,Partly Cloudy,190,2013-10-06 22:51:00
4:51 PM,91.9,7.0,4,29.94,10.0,NW,5.8,-,N/A,,Partly Cloudy,320,2013-10-06 23:51:00
5:51 PM,87.1,19.9,8,29.95,10.0,WNW,6.9,-,N/A,,Clear,290,2013-10-07 00:51:00
6:51 PM,80.1,14.0,8,29.96,10.0,West,6.9,-,N/A,,Partly Cloudy,270,2013-10-07 01:51:00
7:51 PM,77.0,21.0,12,29.96,10.0,West,4.6,-,N/A,,Clear,280,2013-10-07 02:51:00
8:51 PM,73.9,19.9,13,29.97,10.0,West,5.8,-,N/A,,Clear,270,2013-10-07 03:51:00
9:51 PM,72.0,23.0,16,29.96,10.0,West,3.5,-,N/A,,Clear,270,2013-10-07 04:51:00
10:51 PM,70.0,24.1,18,29.96,10.0,Calm,Calm,-,N/A,,Clear,0,2013-10-07 05:51:00
11:51 PM,66.0,28.0,24,29.95,10.0,North,3.5,-,N/A,,Clear,350,2013-10-07 06:51:00